Regional Weather Roundup
Issued by NWS

Home | Current Version | Previous Version | Graphics & Text | Print | Product List | Glossary On
Versions: 1 2 3 4 5 6 7 8 9 10 11 12 13 14 15 16 17 18 19 20 21 22 23 24 25 26 27 28 29 30 31 32 33 34 35 36 37 38 39 40 41 42 43 44 45 46 47 48 49 50
000
ASUS43 KFSD 261810
RWRSD

WEATHER ROUNDUP FOR SOUTH DAKOTA
NATIONAL WEATHER SERVICE SIOUX FALLS SD
100 PM CDT WED APR 26 2017

NOTE: "FAIR" INDICATES FEW OR NO CLOUDS BELOW 12,000 FEET WITH NO
SIGNIFICANT WEATHER AND/OR OBSTRUCTIONS TO VISIBILITY.


SDZ001>005-009-010-012>017-261900-
NORTHWEST AND NORTH CENTRAL SOUTH DAKOTA

CITY           SKY/WX    TMP DP  RH WIND       PRES   REMARKS
BUFFALO          N/A     36  25  64 N6        29.75F
FAITH            N/A     39  29  67 NW18G25   29.79F
MOBRIDGE       CLOUDY    38  24  57 N18G24    29.77F
$$

SDZ012>016-024>037-041>051-057-063-072>074-261900-
SOUTHWEST AND SOUTH CENTRAL SOUTH DAKOTA

CITY           SKY/WX    TMP DP  RH WIND       PRES   REMARKS
RAPID CTY ARPT CLOUDY    32  24  72 NW12      29.82F WCI  23
PIERRE         PTSUNNY   42  27  55 N21G29    29.77F
CUSTER         MOSUNNY   35  29  78 SW9       29.71F WCI  28
ELLSWORTH AFB  CLOUDY    33  24  70 N12       29.80F WCI  24
PHILIP         CLOUDY    37  29  72 NW17      29.82F
PINE RIDGE     CLOUDY    37  29  72 NW7       29.80F
SPEARFISH      FAIR      28  23  80 CALM      29.81F
WINNER         CLOUDY    38  28  67 NW23G31   29.78F
$$

SDZ004>011-016>023-039-040-261900-
NORTHEAST SOUTH DAKOTA

CITY           SKY/WX    TMP DP  RH WIND       PRES   REMARKS
ABERDEEN       LGT SNOW  30  25  81 N17       29.76F WCI  18
WATERTOWN      CLOUDY    30  26  85 N20G29    29.66F WCI  17
BROOKINGS      CLOUDY    33  27  78 N21G26    29.64S WCI  21
SISSETON         N/A     30  27  88 N24G32    29.69S WCI  16
$$

SDZ017-020-022-023-036>040-048>070-261900-
SOUTHEAST SOUTH DAKOTA

CITY           SKY/WX    TMP DP  RH WIND       PRES   REMARKS
SIOUX FALLS    CLOUDY    37  31  78 N16G25    29.67R
HURON          CLOUDY    37  26  64 N25G33    29.73F
CHAMBERLAIN    CLOUDY    38  30  72 W16G24    29.76F
MITCHELL       CLOUDY    37  27  67 N22       29.74F
YANKTON        CLOUDY    36  28  75 NW21      29.72R
$$

ABBREVIATIONS USED IN REMARKS
   TC - TEMPERATURE IN CELSIUS
  WCI - WIND CHILL INDEX
   HX - HEAT INDEX
  VSB - VISIBILITY





USA.gov is the U.S. government's official web portal to all federal, state and local government web resources and services.